Location: Peterborough
(44.3091°N, 78.3197°W)
Time: 09:58:12
(UTC-04:00)

A-11 Canister half - Pass Details

Date: 13 September 2024
Orbit: 1515 x 1684 km, 47.2° (Epoch: 02 October)

Event Time Altitude Azimuth Distance (km) Brightness Sun altitude
Rises 23:10:17 0° 274° (W) 4,683 12.0 -35.6°
Reaches altitude 10° 23:13:22 10° 276° (W) 3,689 11.4 -35.9°
Maximum altitude 23:22:39 75° 2° (N) 1,564 8.9 -36.8°
Enters shadow 23:23:30 70° 43° (NE) 1,595 8.9 -36.9°
